Weather History for Alamosa, CO

Change the Weather History Date:

Saturday, March 1, 2014

  Actual Average Record
Temperature  
Mean Temperature 41 °F 28 °F  
Max Temperature 50 °F 45 °F 61 °F (1986)
Min Temperature 31 °F 12 °F -7 °F (1971)
Degree Days  
Heating Degree Days 24 36  
Month to date heating degree days 24 36  
Since 1 July heating degree days 6592 6365  
Cooling Degree Days 0 0  
Month to date cooling degree days 0 0  
Year to date cooling degree days 0 0  
Moisture  
Dew Point 28 °F    
Average Humidity 66    
Maximum Humidity 89    
Minimum Humidity 42    
Precipitation  
Precipitation T in 0.01 in 0.22 in (1993)
Month to date precipitation T 0.01  
Year to date precipitation 0.12 0.53  
Snow  
Snow 0.00 in 0.10 in 3.70 in (1965)
Since 1 July snowfall 28.1 18.2  
Snow Depth 0.00 in    
Sea Level Pressure  
Sea Level Pressure 29.78 in    
Wind  
Wind Speed 15 mph (SSW)    
Max Wind Speed 39 mph    
Max Gust Speed 51 mph    
Visibility 10 miles    
Events Rain    
T = Trace of Precipitation, MM = Missing Value Source: NWS Daily Summary

Daily Weather History Graph

Daily Weather History Graph

Search for Another Location

Airport:

Trip Planner

Search our weather history database for the weather conditions in past years. The results will help you decide how hot, cold, wet, or windy it might be!

Date:

Astronomy

Mar. 01, 2014 Rise Set
Actual Time 6:34 AM MST 5:57 PM MST
Civil Twilight 6:08 AM MST 6:23 PM MST
Nautical Twilight 5:38 AM MST 6:53 PM MST
Astronomical Twilight 5:07 AM MST 7:24 PM MST
Moon 6:31 AM MST (3/1) 6:46 PM MST (3/1)
Length of Visible Light 12h 15m
Length of Day
11h 22m
New Moon, 0% of the Moon is Illuminated
Mar 1
New Moon
Mar 8
First Quarter
Mar 16
Full
Mar 23
Last Quarter
Mar 30
New

Hourly Weather History & Observations

Time (MST) Temp. Windchill Dew Point Humidity Pressure Visibility Wind Dir Wind Speed Gust Speed Precip Events Conditions
12:52 AM 36.0 °F 28.0 °F 26.1 °F 67% 29.81 in 10.0 mi South 11.5 mph - N/A   Clear
1:52 AM 34.0 °F 26.6 °F 25.0 °F 70% 29.79 in 10.0 mi South 9.2 mph - N/A   Clear
2:52 AM 35.1 °F 26.9 °F 25.0 °F 67% 29.75 in 10.0 mi South 11.5 mph - N/A   Partly Cloudy
3:52 AM 36.0 °F 27.5 °F 26.1 °F 67% 29.72 in 10.0 mi SSW 12.7 mph - N/A   Scattered Clouds
4:52 AM 37.0 °F 29.3 °F 25.0 °F 62% 29.73 in 10.0 mi South 11.5 mph - N/A   Clear
5:52 AM 37.9 °F 30.5 °F 30.0 °F 73% 29.74 in 10.0 mi South 11.5 mph - N/A   Mostly Cloudy
6:52 AM 37.0 °F 27.7 °F 30.0 °F 76% 29.75 in 10.0 mi SSW 16.1 mph 21.9 mph N/A   Mostly Cloudy
7:52 AM 43.0 °F 34.2 °F 30.9 °F 62% 29.73 in 10.0 mi SSW 20.7 mph 28.8 mph N/A   Clear
8:52 AM 44.1 °F 35.7 °F 32.0 °F 63% 29.75 in 10.0 mi SSW 20.7 mph 38.0 mph N/A   Scattered Clouds
9:52 AM 46.9 °F - 34.0 °F 61% 29.70 in 10.0 mi SSW 29.9 mph 39.1 mph N/A   Partly Cloudy
10:52 AM 44.1 °F 34.4 °F 36.0 °F 73% 29.78 in 10.0 mi SSW 27.6 mph 40.3 mph 0.00 in Rain Light Rain
11:52 AM 48.0 °F - 32.0 °F 54% 29.74 in 10.0 mi WSW 15.0 mph 28.8 mph 0.00 in   Scattered Clouds
12:52 PM 46.9 °F - 26.1 °F 44% 29.75 in 10.0 mi WSW 16.1 mph 26.5 mph N/A   Overcast
1:52 PM 48.9 °F - 27.0 °F 43% 29.71 in 10.0 mi SSW 18.4 mph 25.3 mph N/A   Mostly Cloudy
2:14 PM 48.0 °F - 24.1 °F 39% 29.84 in 10.0 mi West 23.0 mph 29.9 mph N/A   Mostly Cloudy
2:52 PM 46.0 °F 41.4 °F 25.0 °F 44% 29.76 in 10.0 mi SW 9.2 mph - N/A   Mostly Cloudy
3:52 PM 43.0 °F 34.2 °F 26.1 °F 51% 29.77 in 10.0 mi SW 20.7 mph 31.1 mph N/A   Partly Cloudy
4:52 PM 41.0 °F 32.2 °F 25.0 °F 53% 29.80 in 10.0 mi SSW 18.4 mph 25.3 mph N/A   Clear
5:52 PM 39.0 °F 29.3 °F 27.0 °F 62% 29.81 in 10.0 mi SSW 19.6 mph - N/A   Clear
6:52 PM 36.0 °F 29.6 °F 30.9 °F 82% 29.84 in 10.0 mi SE 8.1 mph - N/A   Clear
7:52 PM 34.0 °F 26.6 °F 30.0 °F 85% 29.83 in 10.0 mi SSE 9.2 mph - N/A   Scattered Clouds
8:52 PM 34.0 °F 23.8 °F 28.9 °F 82% 29.83 in 10.0 mi South 16.1 mph - N/A   Clear
9:52 PM 33.1 °F 23.9 °F 28.0 °F 82% 29.81 in 10.0 mi South 12.7 mph - N/A   Clear
10:52 PM 34.0 °F 24.2 °F 28.0 °F 79% 29.83 in 10.0 mi South 15.0 mph - N/A   Clear
11:52 PM 32.0 °F 24.2 °F 28.0 °F 85% 29.81 in 10.0 mi SSE 9.2 mph - N/A   Clear